AFR117 EDDS-LFPG

Flight info

Callsign AFR117
Flight time N/A
Altitude 23000
Route VESID4B/25 VESID Y127 TUDGA Z738 NOKDI Z104 AGBUL T894 BITBU Y180 DIK UN857 TOLVU DCT RAPOR DCT VEDUS
Aircraft A359/H-SDE2E3GHIJ3J4J5LM1ORWXY/LB1D1

Departure

Time N/A
Airport Stuttgart Airport (EDDS)

Arrival

Time 2026-05-03 20:56
Airport Charles de Gaulle International Airport (LFPG)
Time Latitude Longitude Altitude Speed Heading
2026-05-03 20:15 49.95298 7.91139 22992 ft 421 kts 280°
2026-05-03 20:15 49.96113 7.86770 22990 ft 421 kts 282°
2026-05-03 20:15 49.96973 7.82416 22991 ft 422 kts 282°
2026-05-03 20:15 49.97841 7.78057 22996 ft 422 kts 282°
2026-05-03 20:16 49.98700 7.73691 23001 ft 421 kts 282°
2026-05-03 20:16 49.99561 7.69330 22999 ft 422 kts 282°
2026-05-03 20:16 50.00456 7.64990 23001 ft 422 kts 283°
2026-05-03 20:16 50.01355 7.60705 23008 ft 422 kts 283°
2026-05-03 20:17 50.02266 7.56360 23013 ft 422 kts 283°
2026-05-03 20:17 50.03169 7.52024 23012 ft 422 kts 283°
2026-05-03 20:17 50.04065 7.47682 23014 ft 422 kts 283°
2026-05-03 20:17 50.04956 7.43332 23017 ft 422 kts 283°
2026-05-03 20:18 50.05846 7.38978 23018 ft 422 kts 283°
2026-05-03 20:18 50.06724 7.34632 23019 ft 421 kts 282°
2026-05-03 20:18 50.07509 7.30240 23013 ft 418 kts 277°
2026-05-03 20:18 50.07923 7.25777 23020 ft 415 kts 272°
2026-05-03 20:19 50.08198 7.21309 23000 ft 414 kts 270°
2026-05-03 20:19 50.08408 7.16836 22992 ft 414 kts 270°
2026-05-03 20:19 50.08585 7.12369 22998 ft 414 kts 269°
2026-05-03 20:19 50.08752 7.07898 22998 ft 414 kts 269°
2026-05-03 20:20 50.08918 7.03465 22997 ft 414 kts 269°
2026-05-03 20:20 50.09094 6.98934 22995 ft 414 kts 269°
2026-05-03 20:20 50.09269 6.94514 22990 ft 414 kts 269°
2026-05-03 20:20 50.09441 6.90032 22990 ft 414 kts 269°
2026-05-03 20:21 50.09459 6.85562 22992 ft 413 kts 265°
2026-05-03 20:21 50.09311 6.81103 22989 ft 410 kts 259°
2026-05-03 20:21 50.08675 6.76811 22991 ft 406 kts 248°
2026-05-03 20:21 50.07477 6.72861 22986 ft 403 kts 236°
2026-05-03 20:22 50.05840 6.69335 22992 ft 402 kts 230°
2026-05-03 20:22 50.04049 6.65988 22990 ft 402 kts 228°
2026-05-03 20:22 50.02190 6.62729 22989 ft 402 kts 227°
2026-05-03 20:22 50.00311 6.59504 22987 ft 402 kts 227°
2026-05-03 20:23 49.98621 6.56119 22988 ft 403 kts 236°
2026-05-03 20:23 49.97252 6.52300 22989 ft 404 kts 241°
2026-05-03 20:23 49.96034 6.48358 22985 ft 405 kts 243°
2026-05-03 20:23 49.94887 6.44343 22987 ft 406 kts 244°
2026-05-03 20:24 49.93777 6.40317 22987 ft 406 kts 245°
2026-05-03 20:24 49.92677 6.36284 22986 ft 406 kts 245°
2026-05-03 20:24 49.91574 6.32267 22985 ft 405 kts 245°
2026-05-03 20:24 49.90454 6.28234 22984 ft 405 kts 244°
2026-05-03 20:25 49.89325 6.24237 22990 ft 405 kts 244°
2026-05-03 20:25 49.88164 6.20254 22990 ft 405 kts 244°
2026-05-03 20:25 49.87021 6.16246 22993 ft 405 kts 244°
2026-05-03 20:25 49.85700 6.12402 22992 ft 403 kts 237°
2026-05-03 20:26 49.84204 6.08801 22989 ft 403 kts 235°
2026-05-03 20:26 49.82658 6.05183 22994 ft 403 kts 237°
2026-05-03 20:26 49.81111 6.01562 22994 ft 403 kts 236°
2026-05-03 20:26 49.79539 5.97960 22995 ft 403 kts 236°
2026-05-03 20:27 49.77945 5.94396 22995 ft 403 kts 235°
2026-05-03 20:27 49.76327 5.90842 22994 ft 403 kts 235°
2026-05-03 20:27 49.74827 5.87208 22998 ft 404 kts 241°
2026-05-03 20:27 49.73647 5.83243 22990 ft 405 kts 247°
2026-05-03 20:28 49.72607 5.79180 22992 ft 406 kts 249°
2026-05-03 20:28 49.71636 5.75078 22990 ft 407 kts 249°
2026-05-03 20:28 49.70691 5.70942 22990 ft 408 kts 250°
2026-05-03 20:28 49.69754 5.66802 22991 ft 408 kts 250°
2026-05-03 20:29 49.68825 5.62722 22990 ft 408 kts 250°
2026-05-03 20:29 49.67871 5.58574 22991 ft 409 kts 250°
2026-05-03 20:29 49.66911 5.54446 22991 ft 409 kts 249°
2026-05-03 20:29 49.65944 5.50313 22990 ft 409 kts 249°
2026-05-03 20:30 49.64973 5.46181 22987 ft 409 kts 249°
2026-05-03 20:30 49.63997 5.42046 22990 ft 409 kts 249°
2026-05-03 20:30 49.63022 5.37921 22982 ft 409 kts 249°
2026-05-03 20:30 49.62060 5.33784 22989 ft 409 kts 250°
2026-05-03 20:31 49.61152 5.29623 22981 ft 410 kts 251°
2026-05-03 20:31 49.60275 5.25430 22991 ft 410 kts 252°
2026-05-03 20:31 49.59657 5.21138 22984 ft 412 kts 261°
2026-05-03 20:31 49.59481 5.16772 22969 ft 414 kts 267°
2026-05-03 20:32 49.59455 5.12335 22984 ft 415 kts 268°
2026-05-03 20:32 49.59464 5.07888 22981 ft 416 kts 268°
2026-05-03 20:32 49.59485 5.03424 22977 ft 416 kts 269°
2026-05-03 20:32 49.59511 4.98964 22993 ft 416 kts 269°
2026-05-03 20:33 49.59540 4.94497 22983 ft 416 kts 269°
2026-05-03 20:33 49.59569 4.90031 22985 ft 416 kts 269°
2026-05-03 20:33 49.59598 4.85563 22976 ft 416 kts 269°
2026-05-03 20:33 49.59626 4.81151 22985 ft 405 kts 269°
2026-05-03 20:34 49.59655 4.76909 22993 ft 386 kts 269°
2026-05-03 20:34 49.59686 4.72798 22982 ft 391 kts 269°
2026-05-03 20:34 49.59707 4.68477 22965 ft 412 kts 269°
2026-05-03 20:34 49.59723 4.64020 22971 ft 417 kts 269°
2026-05-03 20:35 49.59739 4.59552 22971 ft 417 kts 269°
2026-05-03 20:35 49.59755 4.55146 22972 ft 416 kts 269°
2026-05-03 20:35 49.59771 4.50633 22917 ft 415 kts 269°
2026-05-03 20:35 49.59785 4.46220 22672 ft 417 kts 269°
2026-05-03 20:36 49.59797 4.41827 22490 ft 402 kts 269°
2026-05-03 20:36 49.59811 4.37583 22126 ft 392 kts 269°
2026-05-03 20:36 49.59823 4.33386 21579 ft 389 kts 269°
2026-05-03 20:36 49.59831 4.29202 21055 ft 389 kts 269°
2026-05-03 20:37 49.59836 4.25030 20538 ft 387 kts 268°
2026-05-03 20:37 49.59840 4.20900 20036 ft 385 kts 268°
2026-05-03 20:37 49.59842 4.16844 19521 ft 382 kts 268°
2026-05-03 20:37 49.59843 4.12752 19021 ft 380 kts 268°
2026-05-03 20:38 49.59743 4.08697 18506 ft 376 kts 261°
2026-05-03 20:38 49.59020 4.04873 18009 ft 371 kts 244°
2026-05-03 20:38 49.57730 4.01463 17508 ft 367 kts 237°
2026-05-03 20:38 49.56335 3.98189 17009 ft 364 kts 237°
2026-05-03 20:39 49.54946 3.94942 16519 ft 361 kts 237°
2026-05-03 20:39 49.53551 3.91667 16267 ft 374 kts 237°
2026-05-03 20:39 49.52108 3.88271 16056 ft 380 kts 237°
2026-05-03 20:39 49.50662 3.84872 15802 ft 380 kts 237°
2026-05-03 20:40 49.49218 3.81474 15550 ft 379 kts 237°
2026-05-03 20:40 49.47780 3.78089 15303 ft 377 kts 237°
2026-05-03 20:40 49.46360 3.74692 15071 ft 377 kts 238°
2026-05-03 20:40 49.45433 3.72430 14920 ft 376 kts 238°
2026-05-03 20:41 49.43681 3.67843 14633 ft 375 kts 241°
2026-05-03 20:41 49.42665 3.64292 14348 ft 349 kts 252°
2026-05-03 20:41 49.42174 3.60793 13942 ft 323 kts 263°
2026-05-03 20:41 49.42067 3.57455 13360 ft 306 kts 269°
2026-05-03 20:42 49.42070 3.54233 12509 ft 298 kts 269°
2026-05-03 20:42 49.42034 3.52095 11909 ft 294 kts 265°
2026-05-03 20:42 49.41690 3.49046 11038 ft 287 kts 253°
2026-05-03 20:42 49.40929 3.46265 10374 ft 278 kts 241°
2026-05-03 20:43 49.39825 3.43885 10027 ft 277 kts 230°
2026-05-03 20:43 49.38408 3.41906 9953 ft 276 kts 218°
2026-05-03 20:43 49.36783 3.40327 9832 ft 276 kts 212°
2026-05-03 20:43 49.35111 3.38884 9453 ft 274 kts 211°
2026-05-03 20:44 49.33452 3.37471 9066 ft 272 kts 212°
2026-05-03 20:44 49.31798 3.36056 8677 ft 271 kts 212°
2026-05-03 20:44 49.30171 3.34659 8297 ft 269 kts 212°
2026-05-03 20:44 49.28567 3.33280 7925 ft 268 kts 212°
2026-05-03 20:45 49.27080 3.31998 7578 ft 266 kts 212°
2026-05-03 20:45 49.26427 3.31426 7431 ft 265 kts 212°
2026-05-03 20:45 49.24932 3.30104 7087 ft 264 kts 212°
2026-05-03 20:45 49.23348 3.28703 6726 ft 263 kts 212°
2026-05-03 20:46 49.21787 3.27324 6363 ft 261 kts 212°
2026-05-03 20:46 49.20219 3.25941 6047 ft 259 kts 212°
2026-05-03 20:46 49.18750 3.24357 5770 ft 257 kts 226°
2026-05-03 20:46 49.17582 3.22307 5510 ft 256 kts 233°
2026-05-03 20:47 49.16481 3.20168 5258 ft 256 kts 233°
2026-05-03 20:47 49.15390 3.18027 5045 ft 251 kts 233°
2026-05-03 20:47 49.14396 3.15932 5031 ft 235 kts 236°
2026-05-03 20:47 49.13459 3.13981 5037 ft 223 kts 234°
2026-05-03 20:48 49.12521 3.12102 5046 ft 222 kts 234°
2026-05-03 20:48 49.11581 3.10228 5052 ft 222 kts 233°
2026-05-03 20:48 49.10648 3.08371 5051 ft 223 kts 233°
2026-05-03 20:48 49.09709 3.06495 5050 ft 223 kts 234°
2026-05-03 20:49 49.08766 3.04618 5050 ft 223 kts 234°
2026-05-03 20:49 49.07809 3.02750 5050 ft 223 kts 231°
2026-05-03 20:49 49.06840 3.00896 5052 ft 223 kts 231°
2026-05-03 20:49 49.05895 2.99017 5054 ft 223 kts 235°
2026-05-03 20:50 49.05183 2.96912 5053 ft 224 kts 248°
2026-05-03 20:50 49.04790 2.94613 5053 ft 225 kts 258°
2026-05-03 20:50 49.04602 2.92242 5042 ft 226 kts 263°
2026-05-03 20:50 49.04473 2.89856 4867 ft 225 kts 263°
2026-05-03 20:51 49.04346 2.87480 4566 ft 224 kts 263°
2026-05-03 20:51 49.04218 2.85143 4213 ft 223 kts 263°
2026-05-03 20:51 49.04095 2.82844 3877 ft 211 kts 263°
2026-05-03 20:51 49.03979 2.80690 3618 ft 196 kts 263°
2026-05-03 20:52 49.03872 2.78699 3367 ft 182 kts 263°
2026-05-03 20:52 49.03771 2.76802 3106 ft 178 kts 263°
2026-05-03 20:52 49.03670 2.74925 2869 ft 178 kts 263°
2026-05-03 20:52 49.03570 2.73043 2626 ft 178 kts 263°
2026-05-03 20:53 49.03470 2.71162 2397 ft 177 kts 263°
2026-05-03 20:53 49.03369 2.69289 2152 ft 177 kts 263°
2026-05-03 20:53 49.03274 2.67477 1930 ft 164 kts 263°
2026-05-03 20:53 49.03185 2.65825 1728 ft 149 kts 263°
2026-05-03 20:54 49.03103 2.64312 1520 ft 138 kts 263°
2026-05-03 20:54 49.02954 2.61523 1144 ft 131 kts 263°
2026-05-03 20:54 49.02881 2.60141 968 ft 133 kts 263°
2026-05-03 20:55 49.02808 2.58703 782 ft 135 kts 264°
2026-05-03 20:55 49.02737 2.57290 580 ft 135 kts 263°
2026-05-03 20:55 49.02653 2.55873 418 ft 135 kts 263°
2026-05-03 20:55 49.02580 2.54509 377 ft 111 kts 265°
2026-05-03 20:56 49.02542 2.53840 384 ft 30 kts 265°
2026-05-03 20:56 49.02514 2.53528 385 ft 30 kts 252°
2026-05-03 20:56 49.02420 2.53273 376 ft 21 kts 236°
2026-05-03 20:56 49.02343 2.53112 372 ft 18 kts 233°
2026-05-03 20:57 49.02243 2.53009 376 ft 17 kts 189°
2026-05-03 20:57 49.02143 2.53009 380 ft 14 kts 176°
2026-05-03 20:57 49.02024 2.53022 376 ft 21 kts 174°
2026-05-03 20:57 49.01917 2.53038 370 ft 10 kts 175°
2026-05-03 20:58 49.01856 2.53090 371 ft 11 kts 116°
2026-05-03 20:58 49.01852 2.53221 368 ft 14 kts 86°
2026-05-03 20:58 49.01859 2.53384 368 ft 17 kts 85°
2026-05-03 20:58 49.01869 2.53572 370 ft 19 kts 86°
2026-05-03 20:59 49.01881 2.53786 368 ft 21 kts 85°
2026-05-03 20:59 49.01893 2.54022 369 ft 23 kts 85°
2026-05-03 20:59 49.01899 2.54128 368 ft 4 kts 85°
2026-05-03 20:59 49.01903 2.54188 371 ft 7 kts 84°
2026-05-03 21:00 49.01906 2.54231 368 ft 0 kts 84°
2026-05-03 21:01 49.01907 2.54264 368 ft 0 kts 86°
2026-05-03 21:01 49.01907 2.54289 368 ft 5 kts 96°
2026-05-03 21:01 49.01882 2.54321 372 ft 6 kts 159°
2026-05-03 21:02 49.01840 2.54350 372 ft 8 kts 135°
2026-05-03 21:02 49.01827 2.54446 368 ft 11 kts 88°
2026-05-03 21:02 49.01833 2.54579 368 ft 14 kts 86°
2026-05-03 21:02 49.01841 2.54717 368 ft 12 kts 85°
2026-05-03 21:03 49.01847 2.54854 368 ft 12 kts 85°
2026-05-03 21:03 49.01853 2.54963 368 ft 10 kts 85°
2026-05-03 21:03 49.01855 2.55073 368 ft 12 kts 101°
2026-05-03 21:03 49.01791 2.55133 373 ft 12 kts 171°
2026-05-03 21:04 49.01695 2.55148 368 ft 15 kts 174°
2026-05-03 21:04 49.01603 2.55159 370 ft 13 kts 176°
2026-05-03 21:04 49.01502 2.55171 371 ft 15 kts 174°
2026-05-03 21:04 49.01422 2.55191 370 ft 11 kts 165°
2026-05-03 21:05 49.01339 2.55218 373 ft 13 kts 176°
2026-05-03 21:05 49.01244 2.55178 368 ft 16 kts 200°
2026-05-03 21:05 49.01140 2.55172 368 ft 13 kts 166°
2026-05-03 21:05 49.01026 2.55222 362 ft 21 kts 163°
2026-05-03 21:06 49.00881 2.55285 346 ft 18 kts 164°
2026-05-03 21:06 49.00789 2.55325 346 ft 15 kts 163°
2026-05-03 21:06 49.00730 2.55436 335 ft 15 kts 91°
2026-05-03 21:06 49.00739 2.55609 336 ft 18 kts 82°
2026-05-03 21:07 49.00758 2.55811 340 ft 20 kts 82°
2026-05-03 21:07 49.00780 2.56036 336 ft 22 kts 82°
2026-05-03 21:07 49.00801 2.56271 340 ft 20 kts 82°
2026-05-03 21:07 49.00815 2.56433 337 ft 15 kts 82°
2026-05-03 21:08 49.00830 2.56601 340 ft 17 kts 82°
2026-05-03 21:08 49.00840 2.56794 336 ft 19 kts 87°
2026-05-03 21:08 49.00850 2.57010 336 ft 21 kts 85°
2026-05-03 21:08 49.00859 2.57183 339 ft 15 kts 85°
2026-05-03 21:09 49.00868 2.57354 337 ft 16 kts 85°
2026-05-03 21:09 49.00876 2.57480 337 ft 12 kts 84°
2026-05-03 21:09 49.00885 2.57623 339 ft 15 kts 85°
2026-05-03 21:09 49.00894 2.57804 336 ft 19 kts 85°
2026-05-03 21:10 49.00906 2.58015 340 ft 20 kts 85°
2026-05-03 21:10 49.00918 2.58219 339 ft 19 kts 85°
2026-05-03 21:10 49.00928 2.58397 337 ft 15 kts 85°
2026-05-03 21:10 49.00935 2.58533 340 ft 8 kts 86°
2026-05-03 21:11 49.00913 2.58615 335 ft 8 kts 143°
2026-05-03 21:11 49.00865 2.58648 335 ft 8 kts 156°
2026-05-03 21:11 49.00818 2.58678 338 ft 4 kts 157°
2026-05-03 21:11 49.00782 2.58693 336 ft 5 kts 179°
2026-05-03 21:12 49.00762 2.58658 337 ft 4 kts 253°
2026-05-03 21:12 49.00760 2.58603 339 ft 6 kts 266°
2026-05-03 21:12 49.00758 2.58570 340 ft 3 kts 263°
2026-05-03 21:12 49.00757 2.58555 340 ft 0 kts 263°